SCP
0 0 0 0 0 0 0 0 0 0 0 0 0 0 0 0 0 0 0 0 0 0 0 0 -0 -0 -0 0 -0 -0 -0 -0 -0 -0 -0 -0 0 0
0 0 0 0 0 0 0 0 0 0 0 0 0 0 0 0 0 0 0 0 0 0 0 0 -0 -0 0 0 0 0 -0 -0 -0 -0 -0 0 0 0
0 0 0 0 0 0 0 0 0 0 0 0 0 0 0 -0 0 0 0 0 0 0 0 0 -0 0 0 0 0 0 -0 -0 0 0 -0 0 0 -0
0 0 0 0 0 0 0 0 0 0 0 0 0 0 0 0 0 0 0 0 0 0 0 0 0 0 0 0 0 0 0 0 0 -0 0 -0 -0 -0
0 0 0 0 0 0 0 0 0 0 0 -0 0 0 0 0 0 0 0 0 0 0 0 0 0 0 0 0 0 0 0 0 0 -0 -0 -0 -0 -0
0 0 0 0 0 0 0 0 0 0 0 -0 0 0 0 0 0 0 0 0 0 0 0 0 0 0 0 0 0 0 0 0 -0 -0 0 -0 -0 -0
0 0 0 0 0 0 0 0 0 0 0 0 0 0 0 0 0 0 0 0 0 0 0 0 0 0 0 0 0 0 0 0 0 -0 0 0 -0 -0
0 0 0 0 0 0 0 0 -0 -0 0 0 0 0 0 0 0 0 0 0 0 0 0 0 0 0 0 0 0 0 0 0 -0 -0 -0 -0 -0 -0
0 0 0 0 0 0 0 0 0 0 0 0 0 0 0 0 0 0 0 0 0 0 0 0 0 0 0 0 0 0 0 0 -0 -0 -0 -0 -0 -0
0 -0 0 0 0 0 0 0 0 0 0 0 0 0 0 0 0 0 0 0 0 0 0 0 0 0 0 0 0 0 0 -0 0 0 -0 -0 -0 -0
0 0 0 0 0 0 0 0 0 0 0 0 0 0 0 0 0 0 0 0 0 0 0 0 0 0 0 0 0 0 -0 0 -0 -0 -0 -0 -0 -0
0 0 0 0 0 -0 0 0 0 0 0 0 0 0 0 0 0 0 0 0 0 0 0 0 0 0 0 0 0 -0 -0 -0 0 -0 -0 -0 -0 0
0 0 0 -0 0 0 0 0 0 0 0 0 0 0 0 0 0 0 0 0 0 0 0 0 0 0 0 0 0 -0 0 -0 0 -0 -0 -0 -0 -0
0 0 0 0 0 -0 0 -0 -0 0 0 0 0 0 0 0 0 0 0 0 0 0 0 0 0 0 0 0 0 0 0 0 -0 -0 -0 -0 -0 -0
0 0 0 -0 -0 -0 -0 0 0 0 0 0 0 0 0 0 0 0 0 -0 0 0 0 0 0 0 0 0 0 0 0 0 -0 -0 -0 0 0 0
0 0 0 0 0 0 0 0 0 0 0 0 0 0 0 0 0 0 0 0 0 0 0 -0 0 0 -0 -0 0 0 0 0 0 -0 0 0 0 0
0 0 0 0 0 0 0 0 0 0 0 0 0 0 0 0 0 0 0 0 0 0 0 0 0 0 -0 -0 -0 0 0 -0 0 0 0 0 0 0
0 0 0 0 -0 0 0 0 0 0 0 0 0 0 -0 -0 0 -0 0 0 0 0 0 0 0 -0 -0 -0 0 0 -0 0 0 0 0 0 0 0
-0 -0 -0 0 0 -0 -0 -0 -0 -0 -0 -0 -0 -0 -0 -0 -0 -0 0 0 0 0 0 0 0 0 0 0 0 0 0 0 0 0 0 0 0 0
0 -0 -0 0 0 0 0 0 0 -0 -0 0 -0 -0 -0 -0 0 0 0 0 0 0 0 0 0 0 0 0 0 0 0 0 0 0 0 0 0 0
-0 0 0 0 0 0 -0 -0 0 -0 -0 -0 -0 -0 0 0 0 0 0 0 0 0 0 0 -0 -0 0 0 0 0 0 0 0 0 0 0 0 0
0 0 0 0 -0 -0 -0 0 -0 0 -0 -0 0 0 0 0 0 0 0 0 0 0 0 0 0 0 0 0 0 0 0 0 0 0 0 0 0 0
0 -0 0 0 0 0 0 0 0 0 0 0 0 0 0 0 0 0 0 0 0 0 0 0 0 0 0 0 0 0 0 0 0 0 0 0 0 0
Wind_Speed_500mb
28 34 40 34 30 25 23 19 15 15 16 14 20 14 16 37 33 29 30 29 31 34 37 40 40 42 38 34 39 44 37 27 27 30 39 43 41 37
24 28 24 30 27 21 19 17 16 21 15 20 23 24 34 36 32 28 31 30 31 32 36 36 36 36 38 34 48 45 34 25 27 37 43 42 38 33
23 24 22 24 21 20 14 9 13 17 20 24 27 28 30 43 47 39 34 32 33 33 34 32 35 36 38 43 52 42 35 27 35 40 42 39 35 31
22 23 22 19 20 23 17 11 6 15 19 36 34 32 32 36 31 31 33 34 31 35 31 33 35 39 40 47 41 39 30 37 41 42 39 36 33 29
24 22 20 20 21 25 21 17 13 20 24 33 44 38 31 28 31 34 39 36 35 35 31 33 37 37 48 46 38 36 39 40 40 37 34 34 29 24
30 27 21 21 18 27 23 17 22 28 30 35 43 44 39 39 40 44 46 39 42 38 37 37 35 42 54 41 38 39 41 39 36 35 35 31 27 23
27 26 32 27 18 24 22 22 28 33 36 38 42 47 41 41 43 47 48 43 43 44 46 44 45 51 41 45 42 39 38 35 34 34 34 28 25 24
25 32 29 24 21 24 22 24 26 33 40 40 50 50 46 46 44 47 53 53 52 47 47 58 56 46 43 47 43 39 37 36 35 34 30 28 26 26
18 21 25 21 23 26 28 26 22 18 16 26 44 55 53 46 51 53 57 58 61 58 57 51 45 41 43 43 39 39 39 40 35 30 29 29 29 28
25 25 25 27 26 27 29 27 31 26 19 22 33 48 46 47 46 53 63 59 58 63 58 55 48 44 45 43 40 38 39 38 33 30 30 29 29 31
24 28 28 28 31 31 29 29 27 24 24 21 29 31 33 37 50 55 57 61 62 61 56 48 51 47 45 43 42 39 40 37 34 31 27 29 30 34
25 23 23 25 33 30 27 34 37 30 27 37 39 37 35 31 39 47 47 56 69 61 59 39 47 47 41 45 43 44 42 39 36 34 32 31 34 38
25 26 25 24 30 29 27 34 34 32 29 38 42 41 40 39 39 41 44 44 61 63 55 47 45 50 27 28 39 41 38 44 41 37 36 37 39 43
26 23 25 30 28 26 26 25 29 30 34 37 44 44 42 43 37 39 41 38 47 43 25 44 41 43 38 22 17 17 27 36 41 39 40 40 42 44
20 24 28 30 24 22 26 29 26 27 38 37 44 42 39 35 33 34 30 36 41 29 16 26 28 28 34 25 14 14 18 15 28 33 34 39 41 45
31 32 29 24 23 25 32 27 21 29 36 38 40 39 38 36 31 35 38 38 34 26 11 17 28 28 38 33 25 21 19 31 30 31 32 35 39 44
36 35 36 35 31 34 30 26 24 29 34 38 42 42 37 34 31 39 37 39 35 21 16 22 35 31 37 35 38 38 36 44 33 32 42 51 53 54
34 33 33 34 36 35 31 30 28 30 33 38 40 44 43 35 34 37 33 33 25 19 13 15 29 35 42 50 49 47 49 51 50 52 56 65 70 64
33 36 37 35 30 28 27 26 31 32 34 35 42 41 43 38 34 31 28 27 24 19 21 20 19 38 43 49 38 43 50 48 48 49 44 52 65 73
42 38 27 22 24 26 29 28 29 33 34 37 37 37 36 30 26 22 21 20 19 21 25 24 29 32 39 39 43 40 40 42 44 51 55 59 69 75
26 19 17 15 19 21 24 26 24 27 30 34 33 35 33 27 20 19 20 19 18 23 31 34 36 35 42 50 63 61 51 50 57 61 67 69 78 86
26 21 14 15 21 20 20 18 19 22 26 28 28 26 27 28 22 23 27 24 30 34 38 38 39 46 50 54 62 65 68 67 65 71 73 75 82 92
21 17 17 21 22 17 23 23 19 18 19 17 17 19 18 22 19 26 30 30 34 43 45 45 42 41 49 55 62 67 69 70 72 70 74 71 75 80
Wind_Direction_500mb
224 228 231 233 245 254 250 251 245 226 213 204 208 221 189 169 173 176 178 180 183 189 185 187 187 185 187 190 185 183 179 174 171 179 175 173 177 175
230 230 223 230 247 248 241 238 237 228 217 201 207 184 172 173 190 186 186 182 179 185 184 180 182 184 187 183 179 188 180 179 181 175 174 175 178 173
227 223 226 222 222 217 215 244 244 232 213 183 170 162 176 165 179 176 173 176 177 182 180 178 181 179 179 173 187 181 181 188 179 177 178 177 178 175
232 237 233 220 212 203 204 210 208 169 174 157 158 158 164 166 164 162 169 171 175 169 174 178 171 174 175 174 182 178 194 185 180 179 178 178 178 184
237 232 230 209 208 200 193 209 199 171 171 163 157 153 160 171 171 176 171 168 167 159 161 161 166 175 173 178 183 185 181 180 182 178 180 182 185 196
233 218 216 208 208 210 201 192 182 171 170 167 163 165 164 172 182 172 168 167 159 152 154 157 163 171 179 180 179 178 181 182 179 181 183 189 202 215
219 212 204 202 189 205 202 196 190 183 173 181 171 166 175 171 174 171 165 163 154 155 157 160 168 179 182 182 179 183 181 180 181 187 195 205 217 233
202 198 194 208 193 191 195 208 205 192 188 186 178 179 175 175 175 173 164 160 155 169 167 171 178 174 174 177 182 183 184 186 191 198 206 215 229 242
173 174 190 200 187 175 178 188 183 182 212 220 196 187 179 181 174 172 170 173 168 170 173 175 181 182 182 182 188 189 191 197 204 210 216 228 239 250
172 174 177 174 174 178 171 167 169 176 199 187 201 194 188 182 181 177 177 176 174 177 185 173 182 186 184 191 196 198 203 207 212 217 230 242 251 260
167 171 176 176 173 180 183 179 168 163 147 156 160 172 174 180 185 183 181 179 173 179 184 187 188 188 193 199 205 210 213 214 217 226 242 251 260 265
157 160 165 191 174 178 176 174 162 165 164 156 156 163 168 173 185 193 190 191 184 183 191 199 193 189 200 209 217 217 219 222 228 236 249 262 267 272
163 162 162 164 159 164 174 173 171 167 162 158 158 162 168 179 184 188 204 208 198 185 198 200 197 194 197 214 219 219 229 235 237 247 259 267 273 277
164 170 161 154 154 156 164 171 180 170 164 161 158 164 174 177 186 199 197 203 206 203 212 206 210 207 201 199 194 215 240 235 242 257 268 273 272 275
171 165 154 152 152 150 161 163 169 176 169 164 163 163 169 170 172 177 194 201 202 201 213 212 213 210 203 206 212 274 275 281 268 266 274 273 277 281
156 162 160 159 147 142 145 156 171 168 169 170 168 166 165 166 172 176 178 184 183 185 184 194 205 209 215 219 242 245 258 281 272 276 290 286 284 289
148 151 153 156 157 148 149 156 160 167 175 174 169 171 169 167 170 171 172 173 178 190 206 211 203 215 217 224 241 239 246 259 271 276 281 288 293 296
148 149 153 154 149 150 153 158 162 168 174 176 176 175 174 173 169 163 168 179 192 200 220 232 212 211 224 232 242 251 251 258 267 273 278 283 292 298
131 135 140 145 147 150 156 157 157 161 168 171 169 167 159 159 166 167 180 195 207 222 262 259 241 231 239 252 269 267 273 280 279 276 281 288 293 300
126 129 127 119 135 140 149 148 147 153 163 165 164 168 164 168 176 184 190 200 210 225 249 264 263 261 257 278 289 295 295 293 290 290 289 293 300 305
139 129 116 126 137 148 143 146 146 149 159 165 167 168 176 185 199 213 218 231 247 256 259 262 270 278 282 280 273 283 293 294 294 292 293 293 298 301
146 141 140 140 150 141 138 150 154 163 165 171 176 184 194 206 228 253 257 262 254 263 269 275 273 270 271 275 281 289 294 297 296 295 293 291 291 292
152 148 149 155 160 150 151 146 152 155 163 172 181 197 225 246 252 245 266 262 263 273 273 275 275 276 276 276 279 284 289 294 295 294 294 295 297 298
Wind_Speed_850mb
28 34 40 34 30 25 23 19 15 15 16 14 20 14 16 37 33 29 30 29 31 34 37 40 40 42 38 34 39 44 37 27 27 30 39 43 41 37
24 28 24 30 27 21 19 17 16 21 15 20 23 24 34 36 32 28 31 30 31 32 36 36 36 36 38 34 48 45 34 25 27 37 43 42 38 33
23 24 22 24 21 20 14 9 13 17 20 24 27 28 30 43 47 39 34 32 33 33 34 32 35 36 38 43 52 42 35 27 35 40 42 39 35 31
22 23 22 19 20 23 17 11 6 15 19 36 34 32 32 36 31 31 33 34 31 35 31 33 35 39 40 47 41 39 30 37 41 42 39 36 33 29
24 22 20 20 21 25 21 17 13 20 24 33 44 38 31 28 31 34 39 36 35 35 31 33 37 37 48 46 38 36 39 40 40 37 34 34 29 24
30 27 21 21 18 27 23 17 22 28 30 35 43 44 39 39 40 44 46 39 42 38 37 37 35 42 54 41 38 39 41 39 36 35 35 31 27 23
27 26 32 27 18 24 22 22 28 33 36 38 42 47 41 41 43 47 48 43 43 44 46 44 45 51 41 45 42 39 38 35 34 34 34 28 25 24
25 32 29 24 21 24 22 24 26 33 40 40 50 50 46 46 44 47 53 53 52 47 47 58 56 46 43 47 43 39 37 36 35 34 30 28 26 26
18 21 25 21 23 26 28 26 22 18 16 26 44 55 53 46 51 53 57 58 61 58 57 51 45 41 43 43 39 39 39 40 35 30 29 29 29 28
25 25 25 27 26 27 29 27 31 26 19 22 33 48 46 47 46 53 63 59 58 63 58 55 48 44 45 43 40 38 39 38 33 30 30 29 29 31
24 28 28 28 31 31 29 29 27 24 24 21 29 31 33 37 50 55 57 61 62 61 56 48 51 47 45 43 42 39 40 37 34 31 27 29 30 34
25 23 23 25 33 30 27 34 37 30 27 37 39 37 35 31 39 47 47 56 69 61 59 39 47 47 41 45 43 44 42 39 36 34 32 31 34 38
25 26 25 24 30 29 27 34 34 32 29 38 42 41 40 39 39 41 44 44 61 63 55 47 45 50 27 28 39 41 38 44 41 37 36 37 39 43
26 23 25 30 28 26 26 25 29 30 34 37 44 44 42 43 37 39 41 38 47 43 25 44 41 43 38 22 17 17 27 36 41 39 40 40 42 44
20 24 28 30 24 22 26 29 26 27 38 37 44 42 39 35 33 34 30 36 41 29 16 26 28 28 34 25 14 14 18 15 28 33 34 39 41 45
31 32 29 24 23 25 32 27 21 29 36 38 40 39 38 36 31 35 38 38 34 26 11 17 28 28 38 33 25 21 19 31 30 31 32 35 39 44
36 35 36 35 31 34 30 26 24 29 34 38 42 42 37 34 31 39 37 39 35 21 16 22 35 31 37 35 38 38 36 44 33 32 42 51 53 54
34 33 33 34 36 35 31 30 28 30 33 38 40 44 43 35 34 37 33 33 25 19 13 15 29 35 42 50 49 47 49 51 50 52 56 65 70 64
33 36 37 35 30 28 27 26 31 32 34 35 42 41 43 38 34 31 28 27 24 19 21 20 19 38 43 49 38 43 50 48 48 49 44 52 65 73
42 38 27 22 24 26 29 28 29 33 34 37 37 37 36 30 26 22 21 20 19 21 25 24 29 32 39 39 43 40 40 42 44 51 55 59 69 75
26 19 17 15 19 21 24 26 24 27 30 34 33 35 33 27 20 19 20 19 18 23 31 34 36 35 42 50 63 61 51 50 57 61 67 69 78 86
26 21 14 15 21 20 20 18 19 22 26 28 28 26 27 28 22 23 27 24 30 34 38 38 39 46 50 54 62 65 68 67 65 71 73 75 82 92
21 17 17 21 22 17 23 23 19 18 19 17 17 19 18 22 19 26 30 30 34 43 45 45 42 41 49 55 62 67 69 70 72 70 74 71 75 80
Wind_Direction_850mb
224 228 231 233 245 254 250 251 245 226 213 204 208 221 189 169 173 176 178 180 183 189 185 187 187 185 187 190 185 183 179 174 171 179 175 173 177 175
230 230 223 230 247 248 241 238 237 228 217 201 207 184 172 173 190 186 186 182 179 185 184 180 182 184 187 183 179 188 180 179 181 175 174 175 178 173
227 223 226 222 222 217 215 244 244 232 213 183 170 162 176 165 179 176 173 176 177 182 180 178 181 179 179 173 187 181 181 188 179 177 178 177 178 175
232 237 233 220 212 203 204 210 208 169 174 157 158 158 164 166 164 162 169 171 175 169 174 178 171 174 175 174 182 178 194 185 180 179 178 178 178 184
237 232 230 209 208 200 193 209 199 171 171 163 157 153 160 171 171 176 171 168 167 159 161 161 166 175 173 178 183 185 181 180 182 178 180 182 185 196
233 218 216 208 208 210 201 192 182 171 170 167 163 165 164 172 182 172 168 167 159 152 154 157 163 171 179 180 179 178 181 182 179 181 183 189 202 215
219 212 204 202 189 205 202 196 190 183 173 181 171 166 175 171 174 171 165 163 154 155 157 160 168 179 182 182 179 183 181 180 181 187 195 205 217 233
202 198 194 208 193 191 195 208 205 192 188 186 178 179 175 175 175 173 164 160 155 169 167 171 178 174 174 177 182 183 184 186 191 198 206 215 229 242
173 174 190 200 187 175 178 188 183 182 212 220 196 187 179 181 174 172 170 173 168 170 173 175 181 182 182 182 188 189 191 197 204 210 216 228 239 250
172 174 177 174 174 178 171 167 169 176 199 187 201 194 188 182 181 177 177 176 174 177 185 173 182 186 184 191 196 198 203 207 212 217 230 242 251 260
167 171 176 176 173 180 183 179 168 163 147 156 160 172 174 180 185 183 181 179 173 179 184 187 188 188 193 199 205 210 213 214 217 226 242 251 260 265
157 160 165 191 174 178 176 174 162 165 164 156 156 163 168 173 185 193 190 191 184 183 191 199 193 189 200 209 217 217 219 222 228 236 249 262 267 272
163 162 162 164 159 164 174 173 171 167 162 158 158 162 168 179 184 188 204 208 198 185 198 200 197 194 197 214 219 219 229 235 237 247 259 267 273 277
164 170 161 154 154 156 164 171 180 170 164 161 158 164 174 177 186 199 197 203 206 203 212 206 210 207 201 199 194 215 240 235 242 257 268 273 272 275
171 165 154 152 152 150 161 163 169 176 169 164 163 163 169 170 172 177 194 201 202 201 213 212 213 210 203 206 212 274 275 281 268 266 274 273 277 281
156 162 160 159 147 142 145 156 171 168 169 170 168 166 165 166 172 176 178 184 183 185 184 194 205 209 215 219 242 245 258 281 272 276 290 286 284 289
148 151 153 156 157 148 149 156 160 167 175 174 169 171 169 167 170 171 172 173 178 190 206 211 203 215 217 224 241 239 246 259 271 276 281 288 293 296
148 149 153 154 149 150 153 158 162 168 174 176 176 175 174 173 169 163 168 179 192 200 220 232 212 211 224 232 242 251 251 258 267 273 278 283 292 298
131 135 140 145 147 150 156 157 157 161 168 171 169 167 159 159 166 167 180 195 207 222 262 259 241 231 239 252 269 267 273 280 279 276 281 288 293 300
126 129 127 119 135 140 149 148 147 153 163 165 164 168 164 168 176 184 190 200 210 225 249 264 263 261 257 278 289 295 295 293 290 290 289 293 300 305
139 129 116 126 137 148 143 146 146 149 159 165 167 168 176 185 199 213 218 231 247 256 259 262 270 278 282 280 273 283 293 294 294 292 293 293 298 301
146 141 140 140 150 141 138 150 154 163 165 171 176 184 194 206 228 253 257 262 254 263 269 275 273 270 271 275 281 289 294 297 296 295 293 291 291 292
152 148 149 155 160 150 151 146 152 155 163 172 181 197 225 246 252 245 266 262 263 273 273 275 275 276 276 276 279 284 289 294 295 294 294 295 297 298